Wind_Speed
3 4 2 0 4 2 7 7 2 4 4 1 4 4 6 7 4 0 2 15 22 27 27 29 30 28 27 28 27 27 26 25 25 25 23 21 22 22 22 21 19 16 14 13 12 12 12 13 14
2 1 2 2 5 10 11 7 10 11 4 6 6 1 5 4 2 5 12 12 24 29 27 27 32 30 29 27 25 25 24 24 24 23 22 20 21 21 22 20 18 15 14 13 13 13 13 14 14
2 2 2 3 5 16 12 7 9 8 4 4 4 2 4 1 2 4 7 19 24 25 26 27 32 30 29 28 26 24 23 24 24 23 21 20 21 22 20 18 15 13 13 12 12 12 13 14 14
1 2 3 5 13 7 13 10 2 1 1 1 3 9 4 3 2 7 20 22 25 25 26 31 32 30 29 28 26 24 23 22 22 22 22 22 22 22 19 17 14 13 12 12 12 12 13 13 15
4 0 4 5 13 5 7 7 5 4 2 2 7 5 6 5 10 16 22 23 26 26 25 29 31 30 30 29 27 26 25 23 22 22 21 22 22 21 19 16 14 12 11 12 12 12 12 13 14
3 1 4 14 16 8 8 10 10 12 8 6 3 5 5 4 10 15 21 19 22 26 25 24 30 28 27 26 26 25 24 24 24 23 22 22 21 19 17 15 13 12 11 11 12 13 13 13 13
5 5 10 8 7 10 13 8 9 10 10 6 3 5 3 4 9 16 21 20 22 23 23 21 21 25 25 25 25 24 24 23 23 22 21 21 20 18 16 15 13 12 11 11 12 13 13 13 13
4 4 6 9 11 14 5 4 7 12 13 2 4 6 4 4 12 15 20 21 23 23 22 23 22 21 20 22 24 24 23 22 22 21 21 21 20 18 16 14 12 11 10 10 11 12 12 11 11
4 7 12 14 13 11 3 6 4 1 5 3 2 5 6 16 18 17 20 21 21 21 21 21 23 22 21 20 22 22 22 22 21 21 20 20 17 18 18 16 13 11 9 9 10 11 11 11 11
10 9 15 6 14 8 3 7 5 3 4 3 2 5 7 15 20 21 21 21 21 23 23 22 23 23 23 21 21 20 20 20 21 21 22 19 17 17 16 15 14 12 10 10 10 10 10 10 8
10 17 11 9 14 13 12 10 4 5 10 8 0 5 6 10 14 17 21 25 27 23 20 21 21 22 24 23 23 22 22 20 20 21 21 18 16 15 14 13 13 11 11 8 9 8 9 10 9
11 11 13 9 13 8 12 8 6 13 15 4 3 4 2 10 14 17 19 20 21 23 22 23 23 23 24 21 22 20 21 22 21 20 22 18 17 16 15 14 14 13 12 11 10 9 9 9 10
18 13 13 19 14 13 8 11 9 9 13 10 13 13 10 11 15 16 18 20 22 23 24 25 25 28 27 22 20 21 21 21 18 18 19 17 16 15 15 13 13 13 11 11 10 9 8 9 11
5 19 19 14 17 15 17 20 14 9 17 16 11 12 10 8 15 15 16 19 22 22 23 24 25 25 25 22 23 18 17 17 19 19 19 19 16 14 14 13 13 12 12 12 12 10 6 10 11
8 11 12 18 19 15 6 22 21 15 20 19 15 15 12 11 10 19 24 23 24 25 22 24 25 27 23 22 20 19 15 15 16 17 17 19 18 16 14 13 14 12 10 11 11 11 10 13 12
12 18 20 14 12 10 17 22 3 22 23 22 18 16 13 14 15 19 17 21 20 20 25 25 24 25 24 25 18 15 14 14 15 14 14 17 18 18 17 15 11 10 8 10 10 12 12 13 12
13 15 19 15 19 13 20 10 15 15 14 18 16 16 14 12 12 15 18 19 21 24 22 24 23 22 22 19 15 14 14 13 12 11 12 12 12 14 14 12 11 6 4 11 13 12 12 11 12
19 23 14 17 13 23 22 17 3 8 14 13 14 13 12 11 14 18 20 19 18 18 17 18 20 21 20 16 13 12 11 11 10 12 10 8 5 5 9 12 10 4 4 14 13 11 10 10 11
10 17 22 15 11 17 27 22 17 13 10 12 13 12 13 11 12 13 16 18 18 18 18 19 21 20 20 17 16 15 12 13 13 12 12 12 12 17 7 17 7 8 7 18 18 12 10 8 7
17 17 17 12 18 14 13 22 21 21 20 16 16 15 13 11 10 10 16 20 22 23 21 20 20 19 20 19 16 12 15 11 14 16 16 8 6 9 10 9 5 10 12 13 12 8 5 5 3
26 20 13 6 11 18 5 16 15 16 16 15 17 15 14 14 14 11 13 22 22 23 23 20 18 19 17 17 14 12 13 15 15 14 14 14 16 17 17 18 17 19 18 9 6 4 3 4 3
26 25 15 13 13 10 12 5 13 20 18 17 17 15 15 14 12 11 13 15 20 19 14 12 14 16 17 18 16 16 16 17 10 14 16 17 17 19 21 23 17 13 7 5 3 3 2 3 5
23 17 22 16 9 5 9 6 9 9 17 17 18 15 14 14 13 12 13 13 9 11 13 14 13 13 13 14 14 16 12 10 17 16 17 16 16 18 19 17 14 9 7 6 5 2 4 4 3
13 17 20 17 10 11 18 12 7 10 17 14 10 10 9 10 11 10 12 16 16 17 21 22 20 15 9 9 11 10 11 13 17 16 17 15 15 16 16 15 12 9 6 5 5 6 6 6 6
22 22 9 11 10 12 19 12 13 8 9 12 13 12 10 10 11 13 14 12 18 22 26 25 23 24 17 13 6 13 17 17 17 15 13 13 11 11 11 10 8 7 6 6 5 6 6 7 8
30 26 10 14 16 18 5 13 8 23 7 1 12 13 11 11 12 13 14 15 19 23 26 26 28 31 29 25 12 12 20 22 21 20 17 15 12 11 11 10 8 7 6 6 9 8 8 8 10
30 23 14 6 10 10 9 4 3 10 8 11 14 14 12 12 13 14 13 16 22 22 23 23 28 27 20 23 8 8 14 20 17 18 17 14 13 11 9 9 9 9 9 9 10 8 9 10 11
26 28 15 6 11 10 12 16 5 12 13 13 15 14 13 14 14 13 12 16 15 16 18 16 23 27 24 27 19 15 17 16 15 16 15 13 12 9 8 8 8 8 8 10 11 10 10 12 12
9 18 15 10 3 6 7 8 3 7 16 18 16 15 15 16 15 13 14 19 18 20 21 25 27 34 27 26 17 15 13 14 12 12 11 9 8 7 6 6 6 7 8 9 10 10 11 12 12
21 27 26 14 10 2 3 4 2 6 13 16 16 16 15 16 17 18 18 21 21 21 23 23 22 23 23 24 21 16 13 10 10 10 7 5 4 4 5 5 7 9 10 10 11 11 11 12 14
Wind_Direction
297 322 335 53 215 250 223 217 205 186 216 132 284 250 256 298 232 20 104 161 153 152 158 164 164 162 159 156 151 151 155 157 157 156 155 153 152 150 150 150 150 148 144 145 145 144 142 138 134
13 61 58 124 225 222 230 206 194 219 216 315 293 233 247 276 217 117 127 157 156 154 157 160 165 162 160 155 150 150 151 156 160 159 158 156 154 153 153 152 153 154 152 152 149 147 143 140 136
86 100 197 209 222 230 248 223 234 251 284 263 289 254 290 249 273 170 145 153 155 154 157 161 167 163 161 154 151 148 151 155 159 161 162 160 157 156 154 153 153 151 150 149 147 147 145 141 139
89 141 112 231 226 231 238 246 173 260 63 191 335 292 280 226 211 161 149 146 154 157 159 166 168 165 162 156 153 150 151 156 159 161 162 161 160 159 157 154 152 150 151 152 155 151 148 146 146
50 110 205 231 244 238 247 250 243 255 296 216 326 289 273 140 130 137 152 152 160 160 161 164 170 168 166 162 158 155 155 155 157 157 160 161 162 163 161 159 157 154 156 159 161 160 156 154 155
149 166 218 231 232 239 246 241 262 263 262 265 233 276 268 109 136 141 150 154 161 158 159 162 171 171 169 166 162 160 158 157 158 159 161 163 166 167 167 167 166 163 162 166 169 170 167 165 168
219 191 227 231 253 266 245 190 216 261 248 236 288 247 252 176 151 148 148 152 154 156 156 159 164 172 172 169 168 165 161 159 160 161 163 166 169 172 173 172 170 169 172 176 179 180 179 178 180
189 218 209 222 224 256 226 186 213 234 259 273 214 227 230 134 148 146 141 144 151 156 160 160 163 166 168 173 174 170 167 164 163 164 168 171 172 173 174 176 178 179 184 186 187 187 189 190 193
157 228 232 223 203 231 123 209 192 225 255 297 225 282 319 148 146 145 138 145 154 160 167 167 166 169 171 171 176 176 174 171 169 169 172 174 174 177 180 182 185 186 191 196 196 196 200 205 210
200 226 225 223 225 248 208 200 155 253 270 239 80 44 111 157 161 158 152 155 164 169 174 176 174 173 173 173 173 175 178 177 176 177 178 179 183 185 184 188 192 199 200 199 198 202 207 211 218
208 233 220 215 228 243 248 244 238 235 270 234 118 43 137 176 178 169 164 170 173 172 176 182 180 179 178 178 177 180 181 185 189 187 183 186 185 188 190 193 195 201 210 211 211 211 210 214 217
235 231 225 228 227 222 236 253 232 224 238 168 300 319 266 196 191 181 171 168 170 177 182 186 188 185 184 184 184 191 188 189 189 192 192 189 189 192 193 195 195 201 203 210 211 212 218 230 237
231 230 217 233 239 229 230 235 237 224 249 256 289 292 271 224 209 196 181 175 177 184 189 193 191 195 190 190 191 194 197 193 193 193 196 195 197 198 196 203 205 198 204 212 225 214 232 242 250
232 223 233 235 237 240 246 254 240 225 251 261 258 266 276 238 205 193 188 185 187 193 196 195 197 200 196 196 200 204 201 197 194 194 198 204 206 207 206 207 214 206 208 218 216 231 231 256 261
211 229 232 237 235 239 204 255 239 230 240 249 251 261 260 254 205 209 197 195 193 199 197 199 200 199 200 202 205 200 195 200 203 201 203 206 211 215 216 220 219 211 220 236 232 237 243 261 262
217 239 242 207 196 217 200 244 197 219 217 238 242 247 242 244 226 220 219 207 201 199 202 201 200 200 199 201 200 196 198 199 204 205 209 214 219 222 221 224 220 214 231 263 260 255 263 257 250
205 226 225 230 213 205 199 256 240 228 200 224 230 233 237 230 228 222 217 209 206 206 202 202 203 202 201 200 193 192 194 196 201 202 209 217 218 224 225 221 216 224 298 291 262 246 243 254 264
210 215 209 206 189 213 212 231 233 176 201 218 234 226 235 229 221 221 216 212 212 211 209 204 197 195 190 185 182 189 192 185 179 188 189 192 194 251 267 252 209 222 264 269 257 241 253 255 268
225 205 215 206 193 195 218 222 222 228 228 238 237 241 233 225 239 225 218 213 210 210 207 201 189 187 180 175 172 178 168 177 179 182 170 140 93 61 50 345 351 292 253 257 250 250 245 260 263
229 214 213 203 218 207 222 233 223 233 241 234 227 230 235 225 198 203 207 209 211 209 207 201 193 180 182 178 173 170 176 167 160 157 155 168 171 127 60 39 334 277 271 245 232 227 236 242 314
220 218 197 167 180 210 239 241 219 219 219 217 226 231 231 229 232 201 196 203 207 206 203 198 186 177 170 174 169 170 174 163 159 166 157 141 143 141 152 181 196 204 231 219 228 232 270 289 322
216 216 217 199 193 189 199 251 215 208 211 207 206 215 225 222 228 216 199 199 203 202 194 180 164 166 174 182 181 184 188 177 179 169 165 163 165 184 214 211 203 200 191 172 205 257 292 314 304
223 186 205 212 206 194 184 234 228 200 215 209 206 211 222 224 215 204 198 188 163 154 145 146 147 164 183 189 191 190 177 169 157 149 148 152 156 161 158 161 155 149 148 136 120 76 55 27 330
200 179 193 209 228 237 211 208 212 205 218 203 176 182 190 190 179 163 145 131 115 125 118 119 123 127 145 182 182 153 157 147 138 130 129 130 129 119 117 121 123 118 96 61 39 17 8 359 342
199 166 155 185 197 216 208 201 225 233 228 212 183 152 147 132 131 134 138 118 122 121 117 113 108 85 86 61 39 133 140 135 131 131 131 126 113 101 99 98 89 72 51 31 12 6 359 348 340
192 181 174 174 188 204 155 212 223 221 208 123 129 133 130 138 134 130 122 123 127 127 118 118 111 101 88 73 17 88 132 136 136 135 133 127 120 114 108 100 89 76 58 34 16 12 357 339 335
192 195 194 136 184 162 178 197 230 185 146 134 127 129 133 133 126 122 122 134 133 128 120 122 115 105 90 85 296 97 132 110 129 129 128 124 116 108 96 79 62 50 37 24 8 350 341 333 326
185 196 203 217 168 179 192 206 156 174 166 151 144 134 120 114 110 110 115 126 124 126 125 129 110 112 117 125 158 147 133 138 138 127 118 117 115 102 79 65 50 41 25 8 355 338 324 321 318
205 191 202 208 229 183 155 199 116 173 166 159 149 135 130 122 117 112 115 106 104 105 107 101 106 110 122 132 141 133 135 131 118 105 105 106 103 95 75 67 45 26 9 353 339 329 326 320 314
202 192 195 189 195 191 189 128 27 133 151 149 135 124 121 115 119 120 116 111 107 103 101 103 111 117 126 140 139 137 129 112 97 101 110 122 110 84 52 37 17 2 352 344 335 326 320 315 317
Height
774 774 774 774 785 787 783 775 768 768 763 752 750 752 749 744 746 759 741 744 748 753 757 761 767 772 777 780 781 783 785 788 790 792 795 798 799 801 803 806 808 809 811 812 814 814 814 815 815
774 774 775 776 783 789 774 763 767 754 748 747 744 745 749 745 734 738 741 745 748 751 757 762 766 770 775 779 781 784 786 788 791 793 796 799 801 803 805 807 809 810 811 812 813 814 815 815 816
774 774 774 777 781 779 770 761 758 751 750 749 748 740 741 741 734 735 738 743 748 753 757 762 767 770 774 777 780 783 787 789 792 793 796 799 801 804 806 808 810 811 812 813 814 815 815 816 818
775 775 779 783 777 772 763 750 757 756 752 749 746 748 735 733 733 736 739 743 748 753 757 761 766 771 774 777 780 782 786 790 792 794 797 800 802 805 807 809 810 812 813 814 815 815 816 817 819
776 777 782 784 778 773 766 756 753 755 755 752 748 748 740 732 734 736 739 742 747 753 758 762 767 770 773 775 778 779 783 787 792 795 798 801 803 805 807 809 810 811 812 813 815 816 818 818 819
777 779 786 777 768 761 760 754 754 754 749 750 753 750 737 733 735 737 740 744 749 753 761 765 769 772 775 778 780 782 784 786 789 793 796 800 803 806 807 808 809 811 812 813 814 815 817 818 819
773 777 772 776 773 766 752 749 754 750 747 747 742 749 732 732 735 737 739 745 750 756 761 767 771 774 777 779 782 785 786 789 791 794 796 799 802 805 806 808 809 810 811 812 814 815 816 817 818
772 773 778 772 769 759 746 747 742 744 745 739 739 745 736 733 738 741 741 745 751 756 761 764 769 774 778 781 783 785 788 789 791 793 796 798 800 803 805 808 809 810 810 811 813 815 816 817 818
773 774 766 764 768 749 745 747 743 742 743 739 736 736 732 734 738 743 744 747 752 756 761 764 766 771 776 780 783 786 788 790 792 793 795 798 801 801 802 805 807 808 809 811 812 813 815 816 817
765 765 756 754 748 744 744 746 745 746 744 740 737 735 734 736 736 738 740 745 750 753 758 760 764 768 773 777 780 784 788 789 790 792 793 796 799 801 802 803 805 807 808 809 810 812 813 814 817
756 746 750 750 747 745 746 748 745 745 744 737 739 736 736 738 738 738 737 739 743 752 757 760 764 766 770 773 776 779 782 786 789 790 792 794 796 799 802 803 803 805 806 809 809 810 811 812 813
754 747 745 742 742 746 746 742 745 741 736 731 734 735 735 735 735 734 736 741 746 750 754 758 761 764 768 772 775 779 779 781 785 788 790 792 795 797 799 800 800 802 804 806 807 807 808 809 810
748 743 743 740 739 741 742 742 742 740 730 731 730 730 731 731 732 734 735 738 743 747 749 753 757 760 765 769 772 774 777 780 785 788 789 791 793 795 796 798 799 798 799 803 806 804 806 807 809
734 738 739 737 737 737 740 736 740 734 729 729 731 727 725 727 728 732 734 737 740 744 746 750 754 759 763 767 768 773 776 779 781 784 787 789 792 794 795 795 797 795 795 800 800 803 801 806 806
735 740 740 736 735 737 740 736 730 731 725 725 726 724 723 722 726 727 726 730 734 738 744 746 750 756 761 765 766 769 775 780 782 784 785 788 790 792 793 796 796 794 795 799 799 799 799 803 803
737 741 739 722 733 733 737 717 713 710 718 721 720 720 721 719 720 722 726 728 733 738 738 743 747 752 757 759 763 768 774 777 781 784 785 787 788 790 791 793 793 793 795 797 796 798 797 800 803
727 713 730 727 718 722 727 716 706 707 714 715 713 714 714 716 719 722 724 726 730 732 736 739 746 750 755 758 762 766 771 774 779 782 784 787 788 790 789 788 791 792 791 796 797 796 797 800 799
702 719 718 719 713 715 719 719 711 705 708 709 705 707 710 712 714 716 721 723 727 732 735 738 742 747 750 756 761 766 770 772 776 778 781 784 785 788 789 791 789 789 791 798 799 798 797 799 799
697 706 707 709 703 708 707 708 711 702 707 706 704 703 705 709 709 714 717 720 724 729 731 734 737 742 747 753 759 763 767 770 773 776 778 779 782 787 788 780 790 791 793 798 800 796 794 798 797
704 706 706 704 699 707 703 705 702 703 698 699 698 697 698 701 706 711 714 717 719 722 727 732 736 739 744 751 757 762 763 769 770 773 775 776 779 783 791 791 794 796 796 796 796 794 797 796 793
706 705 707 700 700 701 704 703 701 694 692 692 691 690 690 693 695 704 710 711 715 719 723 729 733 738 746 752 756 760 763 767 770 771 773 775 778 780 785 791 792 795 795 794 795 796 794 793 793
702 701 705 703 700 705 698 699 692 683 683 686 684 687 687 688 692 696 703 708 712 717 725 732 735 741 746 748 753 757 759 763 769 770 772 775 777 781 786 787 791 794 795 792 794 795 793 793 793
684 692 704 702 702 703 703 706 673 681 680 678 678 677 681 684 687 692 698 705 713 720 725 731 737 742 746 748 751 756 760 763 764 768 770 775 780 783 785 788 788 791 793 794 793 795 792 792 794
685 692 702 706 705 716 687 694 674 676 672 666 669 674 679 682 685 692 701 708 714 720 723 728 735 742 746 750 752 755 759 764 766 769 775 781 785 785 785 788 790 793 792 791 791 793 792 791 793
680 687 709 722 718 695 679 697 661 669 665 657 659 672 679 689 693 699 706 712 716 719 722 728 736 739 744 752 758 755 759 763 771 776 780 782 784 784 786 787 789 790 791 792 793 791 791 792 790
670 666 669 691 690 676 684 682 665 654 661 664 665 674 682 689 695 699 708 715 719 721 723 730 733 735 744 752 770 765 764 765 771 774 779 781 784 787 788 790 791 792 793 792 789 788 789 789 789
661 666 650 668 665 678 675 668 660 658 669 672 677 681 688 694 699 706 712 716 719 724 726 731 728 731 738 743 765 767 771 763 776 777 779 782 784 786 787 788 788 789 789 788 788 789 788 787 787
641 643 665 656 677 676 667 663 652 665 672 675 681 685 694 700 705 711 715 719 723 726 729 735 730 732 736 742 771 774 770 776 780 778 778 781 783 784 785 786 787 788 788 788 788 788 788 787 786
656 648 648 644 653 656 670 663 661 655 664 670 679 688 695 701 707 713 718 723 728 730 733 735 741 740 751 761 773 777 780 779 777 773 777 780 782 784 786 787 788 788 788 789 789 788 786 785 784
649 638 637 648 660 649 644 662 667 666 666 672 684 692 698 705 710 716 721 727 732 736 738 744 749 756 764 772 776 779 779 777 774 775 780 783 783 784 784 785 787 787 787 787 786 785 784 783 780